Location: Unspecified
(40.9786°N, 0.0000°E)
Time: 16:58:08
(UTC+00:00)

Tiangong - Visible Passes

Search period start: 04 April 2026 00:00
Search period end: 14 April 2026 00:00
Orbit: 380 x 386 km, 41.5° (Epoch: 28 March)

Date Brightness Start Highest point End Pass type
(mag) Time Alt. Az. Time Alt. Az. Time Alt. Az.
4 Apr -2.2 19:49:48 10° W 19:52:56 83° N 19:53:50 43° ENE visible
5 Apr -1.2 20:26:14 10° W 20:28:34 46° WNW 20:28:34 46° WNW visible
6 Apr -2.1 19:25:47 10° W 19:28:56 79° N 19:31:03 19° E visible
6 Apr 0.9 21:02:37 10° W 21:03:13 14° W 21:03:13 14° W visible
7 Apr -2.3 20:02:09 10° W 20:05:18 80° S 20:05:38 67° SE visible
8 Apr -2.1 19:01:40 10° W 19:04:49 84° N 19:07:58 10° E visible
8 Apr -0.2 20:38:32 10° W 20:40:12 25° WSW 20:40:12 25° WSW visible
9 Apr -1.9 19:37:58 10° W 19:41:04 58° SSW 19:42:34 26° SE visible
10 Apr -0.5 20:14:28 10° W 20:17:06 24° SSW 20:17:06 24° SSW visible
11 Apr -1.2 19:13:42 10° W 19:16:40 38° SSW 19:19:30 11° SE visible
12 Apr 0.3 19:50:37 10° WSW 19:52:31 15° SSW 19:54:04 11° S visible
